{"data":{"norad_id":58400,"epoch":"2026-09-21T22:56:15.517824Z","epoch_age_seconds":116233,"freshness":"FRESH","line1":"1 58400U 23179A   26264.95573516  .00001853  00000+0  81384-4 0  9994","line2":"2 58400  97.2851 143.7172 0009787  54.7365 305.4787 15.23102828157488","mean_motion":15.23102828,"eccentricity":0.0009787,"inclination_deg":97.2851,"raan_deg":143.7172,"arg_perigee_deg":54.7365,"mean_anomaly_deg":305.4787,"bstar":8.1384e-5,"rev_number":15748,"period_min":94.543846516973,"perigee_km":489.75999311654,"apogee_km":503.21638446108,"semimajor_km":6874.6251887888,"source":"CELESTRAK","updated_at":"2026-09-22T09:00:26.624594Z"}}